GW3856 Weather Reports


Display with metric or nautical units.
time (UTC)temp
F
wind
direction
speed
MPH
gust
MPH
rain 1hr
in
rain 24hr
in
rain mn
in
humidity
%
barometer
mb
20260510150103 54 256 4.0 10.0 0.00 0.02 0.01 84 1009.6
20260510145538 55 233 2.0 15.0 0.00 0.02 0.01 84 1009.8
20260510145038 56 257 5.0 15.0 0.00 0.02 0.01 82 1010.0
20260510144552 57 196 6.0 13.0 0.00 0.02 0.01 79 1009.9
20260510144040 57 282 4.0 10.0 0.00 0.02 0.01 78 1009.7
20260510143538 57 210 2.0 10.0 0.00 0.02 0.01 80 1009.4
20260510143053 57 242 3.0 13.0 0.00 0.02 0.01 79 1009.5
20260510142540 57 209 3.0 13.0 0.00 0.02 0.01 81 1009.4
20260510142039 56 252 4.0 14.0 0.00 0.02 0.01 80 1009.4
20260510141603 56 250 3.0 14.0 0.00 0.02 0.01 82 1009.3
20260510141041 56 223 4.0 11.0 0.00 0.02 0.01 81 1009.4
20260510140537 56 248 4.0 11.0 0.00 0.02 0.01 80 1009.4
20260510140050 56 254 3.0 7.0 0.00 0.02 0.01 81 1009.5
20260510135539 55 234 3.0 8.0 0.00 0.02 0.01 81 1009.4
20260510135040 55 197 2.0 8.0 0.00 0.02 0.01 80 1009.5
20260510134551 55 246 3.0 8.0 0.00 0.02 0.01 80 1009.4
20260510134038 55 242 3.0 9.0 0.00 0.02 0.01 81 1009.4
20260510133538 55 195 2.0 9.0 0.00 0.02 0.01 82 1009.4
20260510133050 55 196 4.0 11.0 0.00 0.02 0.01 82 1009.5
20260510132540 54 184 3.0 11.0 0.00 0.02 0.01 83 1009.6
20260510132039 54 255 3.0 11.0 0.00 0.02 0.01 83 1009.5
20260510131605 54 195 2.0 10.0 0.00 0.02 0.01 83 1009.5
20260510131040 54 189 4.0 9.0 0.00 0.02 0.01 83 1009.4
20260510130539 54 208 2.0 13.0 0.00 0.02 0.01 84 1009.2
20260510130049 54 181 3.0 13.0 0.00 0.02 0.01 83 1009.1
20260510125538 54 198 1.0 11.0 0.00 0.02 0.01 84 1009.4
20260510125038 54 225 3.0 12.0 0.00 0.02 0.01 83 1009.5
20260510124543 54 171 4.0 12.0 0.00 0.02 0.01 83 1009.5
20260510124040 54 188 2.0 9.0 0.00 0.02 0.01 84 1009.7
20260510123539 54 210 4.0 10.0 0.00 0.02 0.01 84 1009.8
20260510123043 54 216 4.0 10.0 0.00 0.02 0.01 84 1009.8
20260510122538 53 126 3.0 10.0 0.00 0.02 0.01 84 1009.7
20260510122038 54 227 3.0 10.0 0.00 0.02 0.01 84 1009.7
20260510121548 54 288 1.0 9.0 0.00 0.02 0.01 85 1009.5
20260510121037 54 276 2.0 9.0 0.00 0.02 0.01 85 1009.4
20260510120538 53 167 3.0 12.0 0.00 0.02 0.01 87 1009.5
20260510120048 53 229 3.0 12.0 0.00 0.02 0.01 87 1009.6
20260510115539 52 208 2.0 7.0 0.00 0.02 0.01 87 1009.5
20260510115039 52 140 3.0 11.0 0.00 0.02 0.01 87 1009.6
20260510114554 53 213 4.0 11.0 0.00 0.02 0.01 88 1009.4
20260510114038 53 238 3.0 10.0 0.00 0.02 0.01 90 1009.3
20260510113539 52 178 2.0 9.0 0.00 0.02 0.01 90 1009.3
20260510113044 51 177 3.0 9.0 0.00 0.02 0.01 91 1009.2
20260510112543 50 237 2.0 6.0 0.00 0.02 0.01 91 1009.2
20260510112039 50 213 2.0 6.0 0.01 0.02 0.01 91 1009.2
20260510111601 50 214 1.0 5.0 0.01 0.02 0.01 91 1009.1
20260510111038 49 0 0.0 4.0 0.01 0.02 0.01 91 1009.1
20260510110536 49 271 1.0 6.0 0.01 0.02 0.01 91 1009.3
20260510110053 49 245 1.0 6.0 0.01 0.02 0.01 91 1009.1
20260510105538 48 223 0.0 6.0 0.01 0.02 0.01 91 1009.1
20260510105039 48 237 1.0 7.0 0.01 0.02 0.01 90 1009.0
20260510104547 48 86 2.0 9.0 0.01 0.02 0.01 91 1008.8
20260510104039 48 149 2.0 9.0 0.01 0.02 0.01 91 1008.1
20260510103541 47 140 1.0 5.0 0.01 0.02 0.01 91 1007.7
20260510103047 48 142 1.0 5.0 0.01 0.02 0.01 91 1008.4
20260510102539 48 161 1.0 5.0 0.01 0.02 0.01 91 1008.8
20260510102042 47 0 0.0 3.0 0.00 0.01 0.00 90 1008.8
20260510101544 47 0 0.0 0.0 0.00 0.01 0.00 91 1008.8
20260510101038 47 0 0.0 0.0 0.00 0.01 0.00 91 1008.7
20260510100539 47 0 0.0 0.0 0.00 0.01 0.00 90 1008.7
20260510100052 47 0 0.0 0.0 0.00 0.01 0.00 90 1008.5
20260510095540 47 0 0.0 0.0 0.00 0.01 0.00 91 1008.3
20260510095037 47 0 0.0 0.0 0.00 0.01 0.00 91 1008.0
20260510094559 47 0 0.0 0.0 0.00 0.01 0.00 90 1008.0
20260510094036 47 0 0.0 0.0 0.00 0.01 0.00 90 1007.8
20260510093538 47 0 0.0 0.0 0.00 0.01 0.00 90 1007.8
20260510093105 47 0 0.0 0.0 0.00 0.01 0.00 90 1007.6
20260510092538 47 0 0.0 2.0 0.00 0.01 0.00 90 1007.5
20260510092042 48 0 0.0 3.0 0.00 0.01 0.00 90 1007.6
20260510091547 48 0 0.0 3.0 0.00 0.01 0.00 90 1007.6
20260510091039 48 257 0.0 3.0 0.00 0.01 0.00 90 1007.7
20260510090537 48 257 1.0 4.0 0.00 0.01 0.00 90 1007.8
20260510090047 48 173 1.0 4.0 0.00 0.01 0.00 90 1007.4
20260510085539 48 215 0.0 3.0 0.00 0.01 0.00 90 1007.5
20260510085038 48 0 0.0 3.0 0.00 0.01 0.00 90 1007.3
20260510084543 48 215 1.0 4.0 0.00 0.01 0.00 90 1007.4
20260510084039 48 0 0.0 6.0 0.00 0.01 0.00 90 1007.8
20260510083539 48 198 1.0 6.0 0.00 0.01 0.00 90 1007.8
20260510083053 48 161 1.0 4.0 0.00 0.01 0.00 90 1007.7
20260510082539 48 0 1.0 4.0 0.00 0.01 0.00 90 1008.1
20260510082039 48 257 0.0 5.0 0.00 0.01 0.00 89 1008.1
20260510081548 48 0 2.0 5.0 0.00 0.01 0.00 89 1008.1
20260510081039 48 254 1.0 6.0 0.00 0.01 0.00 89 1008.1
20260510080541 48 270 0.0 6.0 0.00 0.01 0.00 89 1008.0
20260510080046 48 0 1.0 7.0 0.00 0.01 0.00 89 1008.1
20260510075539 48 261 2.0 7.0 0.00 0.01 0.00 89 1008.0
20260510075039 48 290 1.0 7.0 0.00 0.01 0.00 89 1008.0
20260510074552 48 0 1.0 7.0 0.00 0.01 0.00 89 1008.0
20260510074039 48 261 1.0 7.0 0.00 0.01 0.00 89 1007.9
20260510073538 48 0 1.0 5.0 0.00 0.01 0.00 89 1007.9
20260510073051 48 140 1.0 11.0 0.00 0.01 0.00 89 1007.8
20260510072538 48 0 1.0 11.0 0.00 0.01 0.00 89 1007.8
20260510072039 48 246 4.0 11.0 0.00 0.01 0.00 89 1007.9
20260510071542 48 213 1.0 8.0 0.00 0.01 0.00 89 1008.0
20260510071037 48 249 1.0 7.0 0.00 0.01 0.00 89 1008.1
20260510070538 48 225 2.0 7.0 0.00 0.01 0.00 89 1008.2
20260510070049 48 244 1.0 5.0 0.00 0.01 0.00 89 1008.2
20260510065539 48 248 2.0 8.0 0.00 0.01 0.00 89 1008.3
20260510065039 48 0 1.0 9.0 0.00 0.01 0.00 89 1008.1
20260510064546 48 196 3.0 9.0 0.00 0.01 0.00 89 1008.0
20260510064037 48 133 2.0 9.0 0.00 0.01 0.00 89 1007.9
20260510063539 48 0 2.0 9.0 0.00 0.01 0.00 89 1007.9
20260510063049 48 154 2.0 9.0 0.00 0.01 0.00 89 1007.9
20260510062542 48 239 1.0 6.0 0.00 0.01 0.00 89 1007.9
20260510062037 48 232 1.0 9.0 0.00 0.01 0.00 89 1007.9
20260510061555 48 317 3.0 11.0 0.00 0.01 0.00 89 1007.9
20260510061040 48 254 2.0 11.0 0.00 0.01 0.00 89 1008.0
20260510060540 48 229 2.0 7.0 0.00 0.01 0.00 89 1008.0
20260510060052 48 84 1.0 10.0 0.00 0.01 0.00 89 1008.1
20260510055539 48 167 1.0 12.0 0.00 0.01 0.00 89 1008.3
20260510055041 48 154 2.0 13.0 0.00 0.01 0.00 89 1008.3
20260510054547 48 195 3.0 13.0 0.00 0.01 0.00 89 1008.3
20260510054038 48 89 2.0 9.0 0.00 0.01 0.00 89 1008.3
20260510053540 48 234 3.0 7.0 0.00 0.01 0.00 89 1008.6
20260510053049 48 109 2.0 10.0 0.00 0.01 0.00 89 1008.4
20260510052539 48 244 3.0 10.0 0.00 0.01 0.00 89 1008.4
20260510052040 47 152 3.0 8.0 0.00 0.01 0.00 89 1008.3
20260510051600 47 209 2.0 9.0 0.00 0.01 0.00 89 1008.3
20260510051038 47 0 3.0 12.0 0.00 0.01 0.00 89 1008.2
20260510050538 47 201 3.0 12.0 0.00 0.01 0.00 89 1008.3
20260510050044 47 166 3.0 8.0 0.00 0.01 0.00 89 1008.4
20260510045539 47 206 3.0 9.0 0.00 0.01 0.00 89 1008.5
20260510045037 47 192 4.0 11.0 0.00 0.01 0.00 89 1008.6
20260510044555 47 223 3.0 11.0 0.00 0.01 0.00 89 1008.5
20260510044038 47 231 2.0 12.0 0.00 0.01 0.00 89 1008.4
20260510043539 47 221 4.0 12.0 0.00 0.01 0.00 89 1008.3
20260510043051 47 247 2.0 9.0 0.00 0.01 0.00 89 1008.3
20260510042541 47 129 3.0 9.0 0.00 0.01 0.00 89 1008.1
20260510042039 47 177 3.0 11.0 0.00 0.01 0.00 89 1008.1
20260510041544 47 187 4.0 11.0 0.00 0.01 0.00 89 1008.1
20260510041039 47 190 2.0 10.0 0.00 0.01 0.00 89 1008.2
20260510040539 47 99 4.0 10.0 0.00 0.01 0.00 89 1008.2
20260510040050 47 151 2.0 7.0 0.00 0.01 0.00 89 1008.4
20260510035538 47 188 2.0 7.0 0.00 0.01 0.01 89 1008.6
20260510035038 47 91 2.0 9.0 0.00 0.01 0.01 89 1008.7
20260510034547 47 133 2.0 9.0 0.00 0.01 0.01 89 1008.8
20260510034040 47 189 2.0 9.0 0.00 0.01 0.01 89 1008.7
20260510033539 47 250 2.0 9.0 0.00 0.01 0.01 89 1008.6
20260510033058 47 155 4.0 9.0 0.00 0.01 0.01 89 1008.5
20260510032543 47 240 3.0 10.0 0.00 0.01 0.01 89 1008.5
20260510032039 47 0 3.0 10.0 0.00 0.01 0.01 89 1008.5
20260510031547 47 139 3.0 10.0 0.00 0.01 0.01 88 1008.4
20260510031040 47 192 2.0 7.0 0.00 0.01 0.01 88 1008.6
20260510030539 47 132 2.0 10.0 0.00 0.01 0.01 88 1008.7
20260510030053 47 238 2.0 10.0 0.00 0.01 0.01 88 1008.7
20260510025539 47 267 2.0 10.0 0.00 0.01 0.01 88 1008.9
20260510025039 47 245 1.0 8.0 0.00 0.01 0.01 88 1008.8
20260510024544 47 224 3.0 8.0 0.00 0.01 0.01 88 1008.8
20260510024038 47 0 2.0 7.0 0.00 0.01 0.01 88 1008.8
20260510023538 47 212 2.0 11.0 0.00 0.01 0.01 88 1008.8
20260510023050 47 213 4.0 12.0 0.00 0.01 0.01 88 1008.8
20260510022542 47 165 3.0 12.0 0.00 0.01 0.01 88 1008.9
20260510022038 47 182 3.0 10.0 0.00 0.01 0.01 88 1008.7
20260510021548 47 147 3.0 10.0 0.00 0.01 0.01 88 1008.8
20260510021039 47 111 2.0 9.0 0.00 0.01 0.01 88 1008.9
20260510020542 47 194 2.0 9.0 0.00 0.01 0.01 88 1008.8
20260510020046 47 115 4.0 9.0 0.00 0.01 0.01 87 1008.8
20260510015537 47 188 2.0 7.0 0.00 0.01 0.01 87 1009.0
20260510015039 47 155 2.0 7.0 0.00 0.01 0.01 87 1009.1
20260510014548 47 0 1.0 6.0 0.00 0.01 0.01 87 1009.0
20260510014040 47 188 2.0 11.0 0.00 0.01 0.01 87 1009.1
20260510013540 47 130 3.0 11.0 0.00 0.01 0.01 87 1009.1
20260510013051 47 242 3.0 11.0 0.00 0.01 0.01 87 1009.2
20260510012540 47 141 2.0 8.0 0.00 0.01 0.01 87 1009.0
20260510012038 47 153 3.0 11.0 0.00 0.01 0.01 87 1009.0
20260510011549 47 123 3.0 12.0 0.00 0.01 0.01 87 1009.2
20260510011039 47 0 4.0 12.0 0.00 0.01 0.01 87 1009.4
20260510010536 47 153 4.0 9.0 0.00 0.01 0.01 87 1009.4
20260510010041 47 0 3.0 8.0 0.00 0.01 0.01 87 1009.3
20260510005539 47 206 2.0 7.0 0.00 0.01 0.01 87 1009.3
20260510005039 47 213 2.0 6.0 0.00 0.01 0.01 87 1009.4
20260510004550 47 142 1.0 6.0 0.00 0.01 0.01 87 1009.2
20260510004039 47 237 0.0 8.0 0.00 0.01 0.01 87 1009.2
20260510003540 47 233 1.0 8.0 0.00 0.01 0.01 87 1009.2
20260510003048 47 200 0.0 9.0 0.00 0.01 0.01 87 1009.0
20260510002538 47 0 3.0 9.0 0.00 0.01 0.01 87 1008.8
20260510002036 47 172 3.0 8.0 0.00 0.01 0.01 87 1008.8
20260510001550 47 229 2.0 10.0 0.00 0.01 0.01 86 1008.8
20260510001039 47 148 1.0 10.0 0.00 0.01 0.01 86 1009.0
20260510000541 47 178 3.0 9.0 0.00 0.01 0.01 86 1009.0
20260510000044 47 163 3.0 9.0 0.00 0.01 0.01 86 1008.9
20260509235539 47 175 2.0 9.0 0.00 0.01 0.01 86 1008.8
20260509235038 47 224 2.0 8.0 0.00 0.01 0.01 86 1008.8
20260509234554 47 99 1.0 5.0 0.00 0.01 0.01 86 1008.7
20260509234043 47 0 1.0 7.0 0.00 0.01 0.01 85 1008.7
20260509233541 47 175 1.0 7.0 0.00 0.01 0.01 85 1008.7
20260509233048 47 150 2.0 7.0 0.00 0.01 0.01 85 1008.8
20260509232542 47 220 1.0 5.0 0.00 0.01 0.01 85 1008.8
20260509232039 47 189 1.0 5.0 0.00 0.01 0.01 85 1008.8
20260509231549 48 167 0.0 5.0 0.00 0.01 0.01 85 1008.8
20260509231039 48 167 2.0 5.0 0.00 0.01 0.01 85 1008.8
20260509230539 48 281 2.0 5.0 0.00 0.01 0.01 85 1008.8
20260509230050 48 194 2.0 7.0 0.00 0.01 0.01 84 1008.8
20260509225539 48 0 3.0 7.0 0.00 0.01 0.01 84 1008.7
20260509225036 48 186 2.0 8.0 0.00 0.01 0.01 84 1008.7
20260509224547 48 53 1.0 8.0 0.00 0.01 0.01 84 1008.7
20260509224039 48 193 1.0 8.0 0.00 0.01 0.01 84 1008.8
20260509223538 48 176 2.0 8.0 0.00 0.01 0.01 84 1008.8
20260509223051 48 209 1.0 10.0 0.00 0.01 0.01 84 1008.8
20260509222541 48 169 3.0 10.0 0.00 0.01 0.01 84 1008.9
20260509222037 48 153 1.0 9.0 0.00 0.01 0.01 84 1008.9
20260509221547 48 169 3.0 9.0 0.00 0.01 0.01 84 1008.9
20260509221039 48 179 2.0 10.0 0.00 0.01 0.01 84 1008.9
20260509220539 48 213 2.0 10.0 0.00 0.01 0.01 84 1009.0
20260509220049 48 270 2.0 7.0 0.00 0.01 0.01 84 1009.1
20260509215539 47 137 2.0 7.0 0.00 0.01 0.01 84 1009.0
20260509215039 47 186 2.0 7.0 0.00 0.01 0.01 85 1009.1
20260509214549 47 202 2.0 7.0 0.00 0.01 0.01 85 1009.1
20260509214039 47 151 1.0 7.0 0.00 0.01 0.01 85 1009.2
20260509213539 47 200 2.0 4.0 0.00 0.01 0.01 85 1009.2
20260509213104 47 180 0.0 7.0 0.00 0.01 0.01 85 1009.2
20260509212540 47 183 2.0 8.0 0.00 0.01 0.01 84 1009.2
20260509212040 47 196 2.0 8.0 0.00 0.01 0.01 84 1009.3
20260509211546 47 200 2.0 10.0 0.00 0.01 0.01 84 1009.3
20260509211042 47 160 3.0 10.0 0.00 0.01 0.01 84 1009.3
20260509210538 47 171 2.0 11.0 0.00 0.01 0.01 84 1009.4
20260509205539 47 113 5.0 12.0 0.00 0.01 0.01 84 1009.4
20260509205039 47 257 4.0 12.0 0.00 0.01 0.01 85 1009.3
20260509204552 47 144 4.0 12.0 0.00 0.01 0.01 85 1009.2
20260509204038 47 166 3.0 12.0 0.00 0.01 0.01 85 1009.3
20260509203539 47 120 3.0 9.0 0.00 0.01 0.01 85 1009.3
20260509203049 47 150 2.0 9.0 0.00 0.01 0.01 85 1009.3
20260509202539 47 156 4.0 9.0 0.00 0.01 0.01 85 1009.4
20260509202040 47 217 4.0 14.0 0.00 0.01 0.01 85 1009.5
20260509201548 47 146 3.0 14.0 0.00 0.01 0.01 85 1009.5
20260509201039 47 121 1.0 11.0 0.00 0.01 0.01 84 1009.6
20260509200539 47 101 3.0 8.0 0.00 0.01 0.01 84 1009.7
20260509200050 48 261 4.0 8.0 0.00 0.01 0.01 84 1009.7
20260509195539 47 215 1.0 7.0 0.00 0.01 0.01 84 1009.7
20260509195041 47 231 1.0 6.0 0.00 0.01 0.01 84 1009.7
20260509194555 47 252 1.0 3.0 0.00 0.01 0.01 84 1009.8
20260509194039 47 216 1.0 4.0 0.00 0.01 0.01 84 1009.8
20260509193543 47 0 1.0 4.0 0.00 0.01 0.01 84 1009.9
20260509193044 47 0 0.0 5.0 0.00 0.01 0.01 85 1010.0
20260509192542 47 0 0.0 7.0 0.00 0.01 0.01 84 1009.9
20260509192039 47 184 3.0 7.0 0.00 0.01 0.01 84 1009.9
20260509191548 47 107 1.0 6.0 0.00 0.01 0.01 85 1010.0
20260509191040 47 0 3.0 7.0 0.00 0.01 0.01 85 1010.0
20260509190539 47 155 2.0 7.0 0.00 0.01 0.01 85 1010.0
20260509190052 47 157 2.0 7.0 0.00 0.01 0.01 86 1010.0
20260509185539 47 214 2.0 7.0 0.00 0.01 0.01 86 1010.1
20260509185040 47 180 3.0 7.0 0.01 0.01 0.01 85 1010.1
20260509184555 47 159 2.0 7.0 0.01 0.01 0.01 86 1010.2
20260509184039 47 210 1.0 6.0 0.01 0.01 0.01 85 1010.3
20260509183539 47 171 3.0 11.0 0.01 0.01 0.01 84 1010.4
20260509183051 47 117 4.0 11.0 0.01 0.01 0.01 84 1010.4
20260509182539 47 147 4.0 10.0 0.01 0.01 0.01 84 1010.6
20260509182038 47 166 1.0 8.0 0.01 0.01 0.01 85 1010.6
20260509181555 47 182 3.0 9.0 0.01 0.01 0.01 85 1010.6
20260509181039 47 144 2.0 9.0 0.01 0.01 0.01 85 1010.6
20260509180538 47 128 3.0 11.0 0.01 0.01 0.01 85 1010.5
20260509180047 47 179 2.0 11.0 0.01 0.01 0.01 86 1010.6
20260509175539 47 150 4.0 11.0 0.01 0.01 0.01 86 1010.6
20260509175039 47 0 0.0 8.0 0.00 0.00 0.00 86 1010.6
20260509174549 47 133 2.0 8.0 0.00 0.00 0.00 85 1010.8
20260509174038 47 105 3.0 8.0 0.00 0.00 0.00 85 1010.8
20260509173537 47 251 3.0 8.0 0.00 0.00 0.00 85 1010.8
20260509173049 47 234 3.0 8.0 0.00 0.00 0.00 85 1010.8
20260509172540 47 202 3.0 11.0 0.00 0.00 0.00 84 1010.9
20260509172039 47 209 4.0 11.0 0.00 0.00 0.00 84 1010.9
20260509171551 47 140 3.0 12.0 0.00 0.00 0.00 83 1010.9
20260509171037 47 144 4.0 13.0 0.00 0.00 0.00 83 1010.8
20260509170540 48 173 4.0 13.0 0.00 0.00 0.00 81 1011.0
20260509170053 48 153 5.0 13.0 0.00 0.00 0.00 79 1011.0
20260509165541 49 180 4.0 13.0 0.00 0.00 0.00 77 1010.9
20260509165039 50 228 3.0 15.0 0.00 0.00 0.00 74 1010.9
20260509164549 50 100 5.0 15.0 0.00 0.00 0.00 69 1010.9
20260509164039 51 148 3.0 14.0 0.00 0.00 0.00 68 1010.9
20260509163539 51 213 5.0 15.0 0.00 0.00 0.00 67 1010.9
20260509163050 51 209 5.0 16.0 0.00 0.00 0.00 66 1010.9
20260509162540 51 136 6.0 19.0 0.00 0.00 0.00 65 1011.0
20260509162040 51 170 4.0 19.0 0.00 0.00 0.00 65 1011.0
20260509161545 52 157 5.0 17.0 0.00 0.00 0.00 62 1011.0
20260509161039 52 151 4.0 15.0 0.00 0.00 0.00 62 1010.9
20260509160538 53 194 5.0 15.0 0.00 0.00 0.00 59 1010.9
20260509160048 53 230 6.0 15.0 0.00 0.00 0.00 57 1011.0
20260509155539 54 228 5.0 13.0 0.00 0.00 0.00 56 1011.0
20260509155039 54 74 4.0 16.0 0.00 0.00 0.00 53 1011.0
20260509154547 54 5 4.0 16.0 0.00 0.00 0.00 52 1011.1
20260509154043 54 132 4.0 11.0 0.00 0.00 0.00 51 1011.1
20260509153539 54 240 3.0 13.0 0.00 0.00 0.00 50 1011.2
20260509153100 54 150 5.0 13.0 0.00 0.00 0.00 50 1011.2
20260509152539 54 157 5.0 13.0 0.00 0.00 0.00 50 1011.3
20260509152058 54 273 5.0 13.0 0.00 0.00 0.00 51 1011.2
20260509151551 53 175 4.0 14.0 0.00 0.00 0.00 50 1011.3
20260509151038 53 193 4.0 14.0 0.00 0.00 0.00 50 1011.4
20260509150539 53 172 4.0 14.0 0.00 0.00 0.00 48 1011.3